STARLINK-33749, 63716

Orbit data source: Space-Track

STARLINK-33749, 63716 is a payload satellite owned by SpaceX/Seattle (US) in LEO that was launched on Mon, 28 Apr 2025 UTC via an FALCON 9 launch vehicle from the Air Force Western Test Range (AFWTR). Payload-class satellites include a variety of spacecraft equipped with specific instruments for various scientific and technological missions. These include communications satellites like Starlink; space stations such as the ISS; scientific satellites like the Hubble; Earth observation satellites from companies like Planet Labs, Umbra, and HawkEye 360; GPS; miniature CubeSats for education and research; and military/defense satellites.

Loading next visibility...
Identifier
63716, 2025-087V
Orbit
LEO
Country
Flag of USUS
Related business
Manufacturer
SpaceX/Seattle
Mission
Operational Commercial Communications
Bus & Motor
STARLINK V2MO, Unknown motor
Mass
575 kg wet, ~530 kg dry
Launch date (UTC)
2025-04-28 (1 year ago)
Launch vehicle
FALCON 9
Launch site
Air Force Western Test Range (AFWTR)
Object type
Payload
Rocket body
Debris
Shape & HBR
Box + 2 Pan, 17.7 m
Radar Cross Section
36.964 m², Large (>1 m²)

Expand to show TLE details & history
Last TLE update: 15 hours ago

TLE from 15 hours ago
0 STARLINK-33749
1 63716U 25087V   26171.23242155  .00015432  00000-0  50759-3 0  9990
2 63716  53.1581 102.9512 0001476  99.0775 261.0394 15.31727972 64901
Epoch: 2026-06-20T05:34Z
TLE epoch observation values (Epoch: 2026-06-20T05:34:41.221Z)
Latitude
-0°
Longitude
110.82945°
Altitude
471.714 km
Speed
7.631 km/s
True Right ascension
06h 51m 48s
True Declination
0° 00' 00"
Sunlit
Object was in daylight at epoch
Visualization orbit readout
Latitude
Unknown
Longitude
Unknown
Altitude
Unknown
Speed
Unknown
Apparent Right ascension
Unknown
Apparent Declination
Unknown
Sunlit
N/A
Visualization observer readout
Local Sidereal Time
07:24:37
Azimuth
Unknown
Elevation
Unknown
Doppler factor
Unknown
Orbital elements
Apogee altitude
471.924 km
Perigee altitude
469.903 km
Semi-major axis
6,849.051 km
Eccentricity
0.00015
Inclination
53.1581°
RAAN
102.9512°
Arg. of periapsis
99.0775°
True anomaly
261.02269°
Mean anomaly
261.0394°
Eccentric anomaly
261.03105°
Mean motion
3.82911 °/min
Orbital period
94.02 mins
BSTAR
0.00050759
Loading maneuver chart data...
Computing Atmospheric mass density...
Loading historical data...
Loading historical data...
Loading historical data...
Loading historical data...
Loading historical data...
Loading historical data...
Loading historical data...

Documentation

Showing up to 5 results
|